User: anonymous   Login
Location: Владивосток
(43.1151°N, 131.8856°E)
Time: 19:51:10
(UTC+10:00)
Language:

CZ-6A DEB - Orbit

View from above orbital plane
View from above orbital plane
View from above satellite
View from above satellite

Ground track
Ground track

The orbit data is extracted from the following two-line orbital elements,

1 54293U 22151AL  24205.00781751  .00001307  00000-0  59540-3 0  9993
2 54293  98.8012 219.8966 0040241 338.1101  21.8356 14.23003670 87446
Epoch (UTC): 23 July 2024 00:11:15
Eccentricity: 0.0040241
inclination: 98.8012°
perigee height: 786 km
apogee height: 844 km
right ascension of ascending node: 219.8966°
argument of perigee: 338.1101°
revolutions per day: 14.23003670
mean anomaly at epoch: 21.8356°
orbit number at epoch: 8744

The dashed part of the orbit path shows where the satellite is in the earth's shadow,  

DLR